Weather History for EGPK - December, 2012

Change the Weather History Date:

Monday, December 10, 2012

  Actual Average Record
Temperature  
Mean Temperature 32 °F -  
Max Temperature 41 °F 44 °F 55 °F (1998)
Min Temperature 24 °F 34 °F 24 °F (2012)
Degree Days  
Heating Degree Days 32    
Moisture  
Dew Point 28 °F    
Average Humidity 88    
Maximum Humidity 93    
Minimum Humidity 70    
Precipitation  
Precipitation 0.00 in - - ()
Sea Level Pressure  
Sea Level Pressure 30.39 in    
Wind  
Wind Speed 1 mph ()    
Max Wind Speed 6 mph    
Max Gust Speed -    
Visibility 6.2 miles    
Events      
Averages and records for this station are not official NWS values.
T = Trace of Precipitation, MM = Missing Value Source: Averaged Metar Reports

Daily Weather History Graph

Daily Weather History Graph

Search for Another Location

Airport or City:

Trip Planner

Search our weather history database for the weather conditions in past years. The results will help you decide how hot, cold, wet, or windy it might be!

Date:

Astronomy

Dec. 10, 2012 Rise Set
Actual Time 8:35 AM GMT 3:46 PM GMT
Civil Twilight 7:49 AM GMT 4:32 PM GMT
Nautical Twilight 7:01 AM GMT 5:20 PM GMT
Astronomical Twilight 6:16 AM GMT 6:05 PM GMT
Moon 4:37 AM GMT (12/10) 1:46 PM GMT (12/10)
Length of Visible Light 8h 43m
Length of Day
7h 11m
Waning Crescent, 12% of the Moon is Illuminated
Dec 10
Waning Crescent
Dec 13
New
Dec 20
First Quarter
Dec 28
Full
Jan 5
Last Quarter

Hourly Weather History & Observations

Time (GMT) Temp. Windchill Dew Point Humidity Pressure Visibility Wind Dir Wind Speed Gust Speed Precip Events Conditions
12:50 AM 32.0 °F - 30.2 °F 93% 30.21 in - North 2.3 mph - N/A   Clear
1:50 AM 30.2 °F - 28.4 °F 93% 30.21 in - Calm Calm - N/A   Clear
2:50 AM 30.2 °F 26.7 °F 28.4 °F 93% 30.24 in - Variable 3.5 mph - N/A   Clear
3:50 AM 30.2 °F - 26.6 °F 86% 30.24 in - Calm Calm - N/A   Clear
4:50 AM 28.4 °F 24.6 °F 26.6 °F 93% 30.27 in - NNE 3.5 mph - N/A   Clear
5:50 AM 26.6 °F - 24.8 °F 93% 30.30 in - Calm Calm - N/A   Clear
6:20 AM 26.6 °F 22.6 °F 24.8 °F 93% 30.30 in - ENE 3.5 mph - N/A   Clear
6:50 AM 28.4 °F - 26.6 °F 93% 30.30 in - Calm Calm - N/A   Clear
7:20 AM 26.6 °F - 24.8 °F 93% 30.33 in - Calm Calm - N/A   Clear
7:50 AM 26.6 °F - 24.8 °F 93% 30.33 in - Calm Calm - N/A   Clear
8:20 AM 24.8 °F - 23.0 °F 93% 30.33 in - Calm Calm - N/A   Clear
8:50 AM 28.4 °F 22.2 °F 26.6 °F 93% 30.36 in - SE 5.8 mph - N/A   Clear
9:20 AM 26.6 °F - 24.8 °F 93% 30.36 in - ENE 2.3 mph - N/A   Clear
9:50 AM 28.4 °F - 26.6 °F 93% 30.36 in - ESE 2.3 mph - N/A   Clear
10:20 AM 32.0 °F - 28.4 °F 87% 30.36 in - Variable 2.3 mph - N/A   Clear
10:50 AM 33.8 °F - 30.2 °F 87% 30.39 in - Calm Calm - N/A   Clear
11:20 AM 33.8 °F - 30.2 °F 87% 30.39 in - Calm Calm - N/A   Clear
11:50 AM 35.6 °F - 32.0 °F 87% 30.39 in - WSW 2.3 mph - N/A   Clear
12:20 PM 37.4 °F 34.9 °F 32.0 °F 81% 30.39 in - North 3.5 mph - N/A   Clear
12:50 PM 39.2 °F - 32.0 °F 75% 30.39 in - Calm Calm - N/A   Clear
1:20 PM 39.2 °F - 32.0 °F 75% 30.39 in - Calm Calm - N/A   Clear
1:50 PM 41.0 °F - 32.0 °F 70% 30.39 in - North 2.3 mph - N/A   Clear
2:20 PM 39.2 °F - 32.0 °F 75% 30.39 in - Calm Calm - N/A   Clear
2:50 PM 39.2 °F - 32.0 °F 75% 30.39 in 6.2 mi North 2.3 mph - N/A   Partly Cloudy
3:20 PM 37.4 °F - 32.0 °F 81% 30.42 in 6.2 mi Calm Calm - N/A   Partly Cloudy
3:50 PM 33.8 °F - 28.4 °F 81% 30.42 in 6.2 mi Calm Calm - N/A   Partly Cloudy
4:20 PM 32.0 °F - 28.4 °F 87% 30.42 in 6.2 mi Calm Calm - N/A   Partly Cloudy
4:50 PM 30.2 °F - 26.6 °F 86% 30.42 in 6.2 mi Calm Calm - N/A   Partly Cloudy
5:20 PM 30.2 °F - 26.6 °F 86% 30.45 in 6.2 mi Calm Calm - N/A   Partly Cloudy
5:50 PM 28.4 °F 24.6 °F 26.6 °F 93% 30.45 in 6.2 mi Variable 3.5 mph - N/A   Partly Cloudy
6:20 PM 28.4 °F - 26.6 °F 93% 30.45 in 6.2 mi Calm Calm - N/A   Partly Cloudy
6:50 PM 28.4 °F - 24.8 °F 86% 30.45 in 6.2 mi Calm Calm - N/A   Partly Cloudy
7:20 PM 28.4 °F - 26.6 °F 93% 30.45 in 6.2 mi Calm Calm - N/A   Partly Cloudy
7:50 PM 28.4 °F - 26.6 °F 93% 30.45 in 6.2 mi Calm Calm - N/A   Partly Cloudy
8:20 PM 28.4 °F - 26.6 °F 93% 30.48 in 6.2 mi Calm Calm - N/A   Partly Cloudy
8:50 PM 28.4 °F - 26.6 °F 93% 30.48 in 6.2 mi SE 2.3 mph - N/A   Partly Cloudy
9:20 PM 28.4 °F - 26.6 °F 93% 30.48 in 6.2 mi Calm Calm - N/A   Partly Cloudy
9:50 PM 26.6 °F - 24.8 °F 93% 30.48 in 6.2 mi Calm Calm - N/A   Partly Cloudy
10:20 PM 26.6 °F - 24.8 °F 93% 30.48 in 6.2 mi SE 2.3 mph - N/A   Partly Cloudy
10:50 PM 26.6 °F - 24.8 °F 93% 30.48 in 6.2 mi Calm Calm - N/A   Partly Cloudy
11:20 PM 26.6 °F - 24.8 °F 93% 30.48 in 6.2 mi Calm Calm - N/A   Partly Cloudy
11:50 PM 26.6 °F 22.6 °F 24.8 °F 93% 30.48 in 6.2 mi SE 3.5 mph - N/A   Partly Cloudy